NOZ2504 UWGG-EFHK

Flight info

Callsign NOZ2504
Flight time 2h 0m
Altitude 36000
Route LARNO2U LARNO T784 ROKUR P164 ODATI P145 ATLUM T561 LEDUN DCT ROPAM
Aircraft B738/M-SDE2E3FGHIRWXY/LB1

Departure

Time 2026-04-25 09:00
Airport Nizhny Novgorod / Strigino International Airport (UWGG)

Arrival

Time 2026-04-25 11:00
Airport Helsinki Vantaa Airport (EFHK)
Time Latitude Longitude Altitude Speed Heading
2026-04-25 08:41 56.21948 43.78812 237 ft 0 kts 101°
2026-04-25 08:49 56.21950 43.78791 265 ft 4 kts 106°
2026-04-25 08:49 56.21961 43.78749 265 ft 4 kts 133°
2026-04-25 08:49 56.21982 43.78725 265 ft 4 kts 176°
2026-04-25 08:49 56.21993 43.78725 265 ft 2 kts 191°
2026-04-25 08:55 56.21984 43.78722 265 ft 4 kts 190°
2026-04-25 08:55 56.21933 43.78683 265 ft 11 kts 223°
2026-04-25 08:55 56.21851 43.78589 265 ft 17 kts 189°
2026-04-25 08:55 56.21731 43.78546 265 ft 18 kts 192°
2026-04-25 08:56 56.21607 43.78497 265 ft 18 kts 191°
2026-04-25 08:56 56.21502 43.78446 265 ft 13 kts 214°
2026-04-25 08:56 56.21487 43.78301 265 ft 11 kts 281°
2026-04-25 08:56 56.21490 43.78279 266 ft 0 kts 281°
2026-04-25 08:57 56.21490 43.78274 266 ft 2 kts 282°
2026-04-25 08:58 56.21496 43.78222 266 ft 7 kts 282°
2026-04-25 08:58 56.21515 43.78106 267 ft 11 kts 300°
2026-04-25 08:58 56.21580 43.78068 268 ft 11 kts
2026-04-25 08:58 56.21654 43.78092 268 ft 16 kts 11°
2026-04-25 08:59 56.21995 43.78218 266 ft 84 kts 12°
2026-04-25 08:59 56.22769 43.78498 266 ft 140 kts 10°
2026-04-25 08:59 56.23858 43.78940 411 ft 175 kts 10°
2026-04-25 08:59 56.25115 43.79508 822 ft 196 kts
2026-04-25 09:00 56.26482 43.80075 1313 ft 207 kts
2026-04-25 09:00 56.27907 43.80699 1928 ft 211 kts
2026-04-25 09:00 56.29320 43.81416 2576 ft 215 kts 12°
2026-04-25 09:00 56.30803 43.82043 3047 ft 224 kts
2026-04-25 09:01 56.32382 43.82600 3279 ft 246 kts
2026-04-25 09:01 56.34170 43.83184 3473 ft 274 kts
2026-04-25 09:01 56.36103 43.83812 4012 ft 289 kts
2026-04-25 09:01 56.38110 43.84442 4536 ft 294 kts
2026-04-25 09:02 56.40104 43.85098 5040 ft 287 kts
2026-04-25 09:02 56.42041 43.85864 5294 ft 285 kts 11°
2026-04-25 09:02 56.43862 43.87256 5634 ft 286 kts 32°
2026-04-25 09:02 56.45217 43.89835 5886 ft 291 kts 57°
2026-04-25 09:03 56.45878 43.93276 6136 ft 291 kts 83°
2026-04-25 09:03 56.45739 43.96869 6470 ft 286 kts 105°
2026-04-25 09:03 56.44911 44.00108 6767 ft 283 kts 128°
2026-04-25 09:03 56.43669 44.02860 7134 ft 284 kts 132°
2026-04-25 09:04 56.42382 44.05585 7435 ft 286 kts 133°
2026-04-25 09:04 56.41065 44.08281 7869 ft 285 kts 134°
2026-04-25 09:04 56.39716 44.10982 8224 ft 293 kts 134°
2026-04-25 09:04 56.38310 44.13674 8766 ft 294 kts 136°
2026-04-25 09:05 56.36945 44.16415 9544 ft 294 kts 130°
2026-04-25 09:05 56.35445 44.18995 9929 ft 307 kts 153°
2026-04-25 09:05 56.33385 44.20040 10106 ft 322 kts 182°
2026-04-25 09:05 56.31161 44.19175 10315 ft 337 kts 204°
2026-04-25 09:06 56.28934 44.17570 10694 ft 350 kts 204°
2026-04-25 09:06 56.26640 44.15969 11287 ft 357 kts 204°
2026-04-25 09:06 56.24296 44.14416 11971 ft 361 kts 203°
2026-04-25 09:06 56.21915 44.12866 12574 ft 368 kts 204°
2026-04-25 09:07 56.19469 44.11326 13153 ft 376 kts 203°
2026-04-25 09:07 56.16968 44.09815 13783 ft 381 kts 203°
2026-04-25 09:07 56.14439 44.08316 14510 ft 383 kts 202°
2026-04-25 09:07 56.12018 44.06404 15225 ft 380 kts 217°
2026-04-25 09:08 56.10001 44.03392 15888 ft 377 kts 232°
2026-04-25 09:08 56.08482 43.99584 16542 ft 375 kts 243°
2026-04-25 09:08 56.07126 43.95554 17183 ft 380 kts 243°
2026-04-25 09:08 56.05777 43.91527 17801 ft 384 kts 243°
2026-04-25 09:09 56.04390 43.87407 18343 ft 389 kts 244°
2026-04-25 09:09 56.03228 43.83983 18782 ft 393 kts 244°
2026-04-25 09:09 56.01928 43.80178 19211 ft 398 kts 244°
2026-04-25 09:09 56.00465 43.75917 19609 ft 405 kts 245°
2026-04-25 09:10 55.98983 43.71620 20102 ft 409 kts 245°
2026-04-25 09:10 55.97478 43.67281 20666 ft 411 kts 245°
2026-04-25 09:10 55.95967 43.62931 21205 ft 414 kts 245°
2026-04-25 09:10 55.94439 43.58538 21698 ft 418 kts 246°
2026-04-25 09:11 55.91339 43.49650 22682 ft 425 kts 246°
2026-04-25 09:11 55.89767 43.45155 23155 ft 429 kts 246°
2026-04-25 09:11 55.88185 43.40644 23479 ft 429 kts 246°
2026-04-25 09:12 55.86625 43.36200 23704 ft 430 kts 246°
2026-04-25 09:12 55.85034 43.31671 23891 ft 432 kts 246°
2026-04-25 09:12 55.83438 43.27143 24183 ft 432 kts 246°
2026-04-25 09:12 55.82028 43.22487 24382 ft 421 kts 259°
2026-04-25 09:13 55.81530 43.17496 24576 ft 405 kts 276°
2026-04-25 09:13 55.81831 43.12589 24824 ft 395 kts 288°
2026-04-25 09:13 55.82695 43.08015 25024 ft 388 kts 301°
2026-04-25 09:13 55.84114 43.03931 25222 ft 386 kts 308°
2026-04-25 09:14 55.85665 43.00032 25418 ft 387 kts 308°
2026-04-25 09:14 55.87242 42.96139 25612 ft 388 kts 308°
2026-04-25 09:14 55.88821 42.92227 25843 ft 389 kts 308°
2026-04-25 09:14 55.90392 42.88295 26037 ft 390 kts 308°
2026-04-25 09:15 55.91959 42.84333 26208 ft 392 kts 308°
2026-04-25 09:15 55.93525 42.80348 26384 ft 393 kts 308°
2026-04-25 09:15 55.95088 42.76350 26570 ft 394 kts 308°
2026-04-25 09:15 55.96656 42.72328 26761 ft 395 kts 308°
2026-04-25 09:16 55.98225 42.68297 26944 ft 396 kts 308°
2026-04-25 09:16 55.99798 42.64249 27099 ft 397 kts 308°
2026-04-25 09:16 56.01354 42.60240 27266 ft 398 kts 308°
2026-04-25 09:16 56.02933 42.56165 27430 ft 399 kts 308°
2026-04-25 09:17 56.06051 42.47931 27741 ft 401 kts 306°
2026-04-25 09:17 56.07579 42.43743 27890 ft 402 kts 306°
2026-04-25 09:17 56.09104 42.39540 28065 ft 402 kts 306°
2026-04-25 09:18 56.10625 42.35348 28285 ft 401 kts 306°
2026-04-25 09:18 56.12145 42.31169 28515 ft 400 kts 306°
2026-04-25 09:18 56.13665 42.26988 28743 ft 399 kts 306°
2026-04-25 09:18 56.15183 42.22813 28964 ft 399 kts 306°
2026-04-25 09:19 56.16696 42.18648 29194 ft 398 kts 306°
2026-04-25 09:19 56.18207 42.14481 29403 ft 398 kts 306°
2026-04-25 09:19 56.19729 42.10338 29628 ft 396 kts 308°
2026-04-25 09:19 56.21372 42.06373 29821 ft 395 kts 309°
2026-04-25 09:20 56.23032 42.02509 29945 ft 396 kts 310°
2026-04-25 09:20 56.24727 41.98595 30068 ft 397 kts 310°
2026-04-25 09:20 56.26422 41.94675 30193 ft 398 kts 309°
2026-04-25 09:20 56.28118 41.90732 30316 ft 399 kts 309°
2026-04-25 09:21 56.29812 41.86774 30469 ft 399 kts 309°
2026-04-25 09:21 56.31504 41.82803 30633 ft 399 kts 309°
2026-04-25 09:21 56.33194 41.78825 30779 ft 400 kts 309°
2026-04-25 09:21 56.34883 41.74839 30920 ft 401 kts 309°
2026-04-25 09:22 56.36576 41.70838 31085 ft 401 kts 309°
2026-04-25 09:22 56.38265 41.66836 31226 ft 402 kts 309°
2026-04-25 09:22 56.39960 41.62817 31378 ft 402 kts 309°
2026-04-25 09:22 56.41652 41.58797 31531 ft 402 kts 309°
2026-04-25 09:23 56.43350 41.54754 31685 ft 403 kts 309°
2026-04-25 09:23 56.45045 41.50714 31837 ft 403 kts 308°
2026-04-25 09:23 56.46740 41.46668 32012 ft 403 kts 308°
2026-04-25 09:23 56.48431 41.42621 32168 ft 404 kts 308°
2026-04-25 09:24 56.50131 41.38547 32317 ft 404 kts 308°
2026-04-25 09:24 56.51804 41.34534 32484 ft 404 kts 308°
2026-04-25 09:24 56.53498 41.30461 32646 ft 405 kts 308°
2026-04-25 09:24 56.55195 41.26373 32799 ft 405 kts 308°
2026-04-25 09:25 56.56889 41.22291 32952 ft 405 kts 308°
2026-04-25 09:25 56.58584 41.18195 33097 ft 406 kts 308°
2026-04-25 09:25 56.60268 41.14082 33259 ft 407 kts 306°
2026-04-25 09:25 56.61714 41.09666 33414 ft 408 kts 298°
2026-04-25 09:26 56.62822 41.04912 33597 ft 410 kts 290°
2026-04-25 09:26 56.63672 40.99950 33744 ft 411 kts 289°
2026-04-25 09:26 56.64509 40.94975 33836 ft 412 kts 289°
2026-04-25 09:26 56.65348 40.89988 33945 ft 413 kts 289°
2026-04-25 09:27 56.66192 40.84997 34076 ft 413 kts 289°
2026-04-25 09:27 56.67039 40.79999 34189 ft 414 kts 289°
2026-04-25 09:27 56.67890 40.74994 34297 ft 415 kts 289°
2026-04-25 09:27 56.68732 40.70039 34417 ft 415 kts 289°
2026-04-25 09:28 56.69585 40.65012 34536 ft 416 kts 289°
2026-04-25 09:28 56.70439 40.59970 34650 ft 417 kts 289°
2026-04-25 09:28 56.71291 40.54920 34760 ft 417 kts 289°
2026-04-25 09:28 56.72141 40.49873 34883 ft 418 kts 289°
2026-04-25 09:29 56.72989 40.44816 35021 ft 418 kts 289°
2026-04-25 09:29 56.73837 40.39751 35129 ft 418 kts 288°
2026-04-25 09:29 56.74684 40.34673 35236 ft 419 kts 288°
2026-04-25 09:29 56.75530 40.29590 35354 ft 419 kts 288°
2026-04-25 09:30 56.76377 40.24483 35448 ft 420 kts 288°
2026-04-25 09:30 56.77207 40.19462 35579 ft 419 kts 288°
2026-04-25 09:30 56.78049 40.14361 35636 ft 421 kts 288°
2026-04-25 09:31 56.79734 40.04097 35647 ft 422 kts 288°
2026-04-25 09:31 56.81407 39.93858 35644 ft 420 kts 287°
2026-04-25 09:32 56.83068 39.83647 35658 ft 419 kts 287°
2026-04-25 09:32 56.84722 39.73468 35652 ft 418 kts 287°
2026-04-25 09:33 56.86366 39.63297 35652 ft 417 kts 287°
2026-04-25 09:33 56.88001 39.53120 35655 ft 417 kts 287°
2026-04-25 09:34 56.89626 39.42941 35653 ft 417 kts 287°
2026-04-25 09:34 56.91245 39.32744 35662 ft 418 kts 287°
2026-04-25 09:35 56.92858 39.22514 35660 ft 419 kts 287°
2026-04-25 09:35 56.94467 39.12256 35653 ft 419 kts 286°
2026-04-25 09:36 56.96059 39.02034 35656 ft 420 kts 286°
2026-04-25 09:36 56.97656 38.91726 35654 ft 421 kts 286°
2026-04-25 09:37 56.99247 38.81388 35653 ft 421 kts 286°
2026-04-25 09:37 57.00564 38.72780 35659 ft 421 kts 286°
2026-04-25 09:38 57.02140 38.62424 35656 ft 421 kts 285°
2026-04-25 09:38 57.03706 38.52071 35663 ft 421 kts 285°
2026-04-25 09:39 57.05264 38.41706 35661 ft 421 kts 285°
2026-04-25 09:39 57.06814 38.31326 35662 ft 421 kts 285°
2026-04-25 09:40 57.09120 38.15757 35675 ft 420 kts 285°
2026-04-25 09:40 57.10637 38.05436 35662 ft 420 kts 285°
2026-04-25 09:41 57.12154 37.95044 35667 ft 420 kts 285°
2026-04-25 09:41 57.13661 37.84655 35667 ft 420 kts 284°
2026-04-25 09:42 57.15160 37.74264 35673 ft 420 kts 284°
2026-04-25 09:42 57.16667 37.63874 35669 ft 420 kts 287°
2026-04-25 09:43 57.18715 37.53800 35678 ft 420 kts 291°
2026-04-25 09:43 57.20917 37.43826 35673 ft 420 kts 291°
2026-04-25 09:44 57.23090 37.33826 35673 ft 420 kts 291°
2026-04-25 09:44 57.25230 37.23790 35679 ft 420 kts 290°
2026-04-25 09:45 57.27340 37.13787 35680 ft 420 kts 290°
2026-04-25 09:45 57.29451 37.03722 35680 ft 420 kts 290°
2026-04-25 09:46 57.31559 36.93623 35685 ft 421 kts 290°
2026-04-25 09:46 57.33662 36.83505 35682 ft 421 kts 290°
2026-04-25 09:47 57.35758 36.73365 35658 ft 421 kts 290°
2026-04-25 09:47 57.37832 36.63282 35678 ft 421 kts 290°
2026-04-25 09:48 57.39914 36.53110 35682 ft 421 kts 290°
2026-04-25 09:48 57.41985 36.42941 35679 ft 422 kts 289°
2026-04-25 09:49 57.44052 36.32737 35691 ft 422 kts 289°
2026-04-25 09:49 57.46114 36.22509 35688 ft 423 kts 289°
2026-04-25 09:50 57.48155 36.12337 35686 ft 423 kts 289°
2026-04-25 09:50 57.50213 36.02071 35687 ft 423 kts 289°
2026-04-25 09:51 57.52278 35.91806 35687 ft 424 kts 289°
2026-04-25 09:51 57.54337 35.81526 35687 ft 424 kts 289°
2026-04-25 09:52 57.56386 35.71225 35684 ft 424 kts 289°
2026-04-25 09:52 57.58429 35.60911 35681 ft 424 kts 289°
2026-04-25 09:53 57.60464 35.50582 35682 ft 424 kts 289°
2026-04-25 09:53 57.62557 35.40297 35676 ft 424 kts 290°
2026-04-25 09:54 57.64655 35.30089 35680 ft 424 kts 290°
2026-04-25 09:54 57.66753 35.19787 35671 ft 424 kts 289°
2026-04-25 09:55 57.68837 35.09469 35672 ft 424 kts 289°
2026-04-25 09:55 57.70909 34.99164 35664 ft 423 kts 289°
2026-04-25 09:56 57.72584 34.88634 35673 ft 422 kts 283°
2026-04-25 09:56 57.73966 34.77964 35665 ft 422 kts 283°
2026-04-25 09:57 57.75354 34.67280 35665 ft 422 kts 283°
2026-04-25 09:57 57.76765 34.56595 35663 ft 422 kts 283°
2026-04-25 09:58 57.78177 34.45924 35656 ft 422 kts 283°
2026-04-25 09:58 57.79583 34.35237 35651 ft 422 kts 283°
2026-04-25 09:59 57.80969 34.24624 35639 ft 421 kts 283°
2026-04-25 09:59 57.82352 34.13947 35659 ft 421 kts 283°
2026-04-25 10:00 57.83725 34.03278 35643 ft 421 kts 283°
2026-04-25 10:00 57.85091 33.92584 35643 ft 421 kts 283°
2026-04-25 10:01 57.86456 33.81882 35641 ft 421 kts 284°
2026-04-25 10:01 57.88733 33.71749 35634 ft 424 kts 300°
2026-04-25 10:02 57.91986 33.62493 35635 ft 424 kts 301°
2026-04-25 10:02 57.95235 33.53281 35631 ft 424 kts 301°
2026-04-25 10:03 57.98471 33.43969 35627 ft 425 kts 301°
2026-04-25 10:03 58.01690 33.34624 35625 ft 425 kts 301°
2026-04-25 10:04 58.04897 33.25270 35621 ft 425 kts 301°
2026-04-25 10:04 58.08103 33.15895 35617 ft 424 kts 301°
2026-04-25 10:05 58.11303 33.06510 35632 ft 425 kts 301°
2026-04-25 10:05 58.14512 32.97115 35608 ft 425 kts 301°
2026-04-25 10:06 58.17712 32.87715 35605 ft 425 kts 300°
2026-04-25 10:06 58.20907 32.78288 35605 ft 424 kts 300°
2026-04-25 10:07 58.24068 32.68920 35612 ft 424 kts 300°
2026-04-25 10:07 58.27261 32.59419 35621 ft 424 kts 300°
2026-04-25 10:08 58.30410 32.50011 35606 ft 424 kts 300°
2026-04-25 10:08 58.33572 32.40527 35601 ft 424 kts 300°
2026-04-25 10:09 58.36730 32.31016 35603 ft 424 kts 300°
2026-04-25 10:09 58.39882 32.21486 35591 ft 424 kts 300°
2026-04-25 10:10 58.43020 32.11957 35598 ft 424 kts 300°
2026-04-25 10:10 58.46153 32.02409 35597 ft 424 kts 300°
2026-04-25 10:11 58.49276 31.92851 35590 ft 424 kts 300°
2026-04-25 10:11 58.52393 31.83270 35590 ft 424 kts 299°
2026-04-25 10:12 58.55482 31.73741 35590 ft 424 kts 299°
2026-04-25 10:13 58.60141 31.59288 35596 ft 425 kts 299°
2026-04-25 10:13 58.63247 31.49613 35578 ft 426 kts 299°
2026-04-25 10:14 58.66349 31.39908 35572 ft 426 kts 299°
2026-04-25 10:14 58.69418 31.30273 35572 ft 425 kts 299°
2026-04-25 10:15 58.72501 31.20554 35572 ft 425 kts 299°
2026-04-25 10:15 58.75579 31.10815 35564 ft 426 kts 299°
2026-04-25 10:16 58.78654 31.01049 35572 ft 426 kts 299°
2026-04-25 10:16 58.81745 30.91277 35558 ft 426 kts 299°
2026-04-25 10:17 58.84838 30.81484 35560 ft 427 kts 299°
2026-04-25 10:17 58.87918 30.71683 35551 ft 427 kts 299°
2026-04-25 10:18 58.90987 30.61863 35548 ft 427 kts 298°
2026-04-25 10:18 58.94025 30.52088 35552 ft 427 kts 298°
2026-04-25 10:19 58.97097 30.42159 35538 ft 427 kts 298°
2026-04-25 10:19 59.00125 30.32334 35541 ft 427 kts 298°
2026-04-25 10:20 59.03161 30.22443 35535 ft 427 kts 298°
2026-04-25 10:20 59.06192 30.12523 35532 ft 426 kts 298°
2026-04-25 10:21 59.09216 30.02585 35555 ft 427 kts 298°
2026-04-25 10:21 59.12232 29.92638 35528 ft 427 kts 298°
2026-04-25 10:22 59.15235 29.82663 35523 ft 426 kts 298°
2026-04-25 10:22 59.18210 29.72672 35522 ft 426 kts 297°
2026-04-25 10:23 59.21174 29.62670 35524 ft 426 kts 297°
2026-04-25 10:23 59.24116 29.52711 35525 ft 426 kts 297°
2026-04-25 10:24 59.27070 29.42670 35514 ft 426 kts 297°
2026-04-25 10:24 59.29528 29.34288 35515 ft 426 kts 297°
2026-04-25 10:25 59.32471 29.24205 35503 ft 426 kts 297°
2026-04-25 10:25 59.35397 29.14095 35505 ft 426 kts 297°
2026-04-25 10:26 59.38312 29.03976 35501 ft 425 kts 297°
2026-04-25 10:26 59.41215 28.93852 35507 ft 426 kts 297°
2026-04-25 10:27 59.44097 28.83764 35489 ft 427 kts 297°
2026-04-25 10:27 59.46998 28.73565 35486 ft 427 kts 297°
2026-04-25 10:28 59.49888 28.63359 35466 ft 426 kts 297°
2026-04-25 10:28 59.51336 28.58230 35218 ft 429 kts 297°
2026-04-25 10:28 59.52778 28.53112 34982 ft 425 kts 296°
2026-04-25 10:28 59.54204 28.48035 34742 ft 423 kts 296°
2026-04-25 10:29 59.55622 28.42963 34535 ft 422 kts 296°
2026-04-25 10:29 59.57037 28.37884 34302 ft 422 kts 296°
2026-04-25 10:29 59.58446 28.32816 34070 ft 421 kts 296°
2026-04-25 10:29 59.59849 28.27759 33845 ft 419 kts 296°
2026-04-25 10:30 59.61238 28.22748 33493 ft 413 kts 296°
2026-04-25 10:30 59.62591 28.17857 33033 ft 408 kts 295°
2026-04-25 10:30 59.63956 28.12910 32607 ft 402 kts 295°
2026-04-25 10:30 59.65267 28.08148 32181 ft 397 kts 295°
2026-04-25 10:31 59.66576 28.03381 31782 ft 392 kts 295°
2026-04-25 10:31 59.67870 27.98661 31355 ft 387 kts 294°
2026-04-25 10:31 59.69144 27.94000 30950 ft 383 kts 294°
2026-04-25 10:31 59.70402 27.89390 30560 ft 378 kts 294°
2026-04-25 10:32 59.71645 27.84826 30183 ft 374 kts 293°
2026-04-25 10:32 59.72874 27.80306 29799 ft 371 kts 293°
2026-04-25 10:32 59.74089 27.75830 29387 ft 367 kts 293°
2026-04-25 10:32 59.75294 27.71380 28936 ft 364 kts 293°
2026-04-25 10:33 59.76425 27.66952 28528 ft 356 kts 288°
2026-04-25 10:33 59.77200 27.62358 28144 ft 347 kts 281°
2026-04-25 10:33 59.77836 27.57766 27748 ft 343 kts 281°
2026-04-25 10:33 59.78461 27.53223 27359 ft 339 kts 281°
2026-04-25 10:34 59.79080 27.48735 26984 ft 335 kts 281°
2026-04-25 10:34 59.79694 27.44291 26577 ft 332 kts 281°
2026-04-25 10:34 59.80302 27.39898 26214 ft 328 kts 281°
2026-04-25 10:34 59.80900 27.35574 25849 ft 325 kts 281°
2026-04-25 10:35 59.81501 27.31230 25472 ft 324 kts 281°
2026-04-25 10:35 59.82093 27.26934 25151 ft 321 kts 282°
2026-04-25 10:35 59.82684 27.22639 24770 ft 324 kts 282°
2026-04-25 10:35 59.83278 27.18303 24404 ft 334 kts 282°
2026-04-25 10:36 59.83894 27.13802 24010 ft 337 kts 282°
2026-04-25 10:36 59.84507 27.09320 23617 ft 334 kts 282°
2026-04-25 10:36 59.85114 27.04883 23238 ft 331 kts 282°
2026-04-25 10:36 59.85713 27.00489 22838 ft 328 kts 282°
2026-04-25 10:37 59.86306 26.96123 22397 ft 326 kts 282°
2026-04-25 10:37 59.86892 26.91798 22033 ft 321 kts 282°
2026-04-25 10:37 59.87468 26.87528 21656 ft 317 kts 282°
2026-04-25 10:37 59.88035 26.83316 21293 ft 313 kts 282°
2026-04-25 10:38 59.88594 26.79153 20942 ft 309 kts 282°
2026-04-25 10:38 59.89144 26.75041 20568 ft 305 kts 282°
2026-04-25 10:38 59.89686 26.70987 20235 ft 302 kts 282°
2026-04-25 10:38 59.90221 26.66962 19884 ft 299 kts 282°
2026-04-25 10:39 59.90750 26.62976 19539 ft 296 kts 282°
2026-04-25 10:39 59.91274 26.59020 19207 ft 293 kts 282°
2026-04-25 10:39 59.91790 26.55111 18881 ft 292 kts 282°
2026-04-25 10:39 59.92306 26.51194 18541 ft 291 kts 282°
2026-04-25 10:40 59.92817 26.47302 18207 ft 290 kts 282°
2026-04-25 10:40 59.93327 26.43410 17872 ft 290 kts 282°
2026-04-25 10:40 59.93835 26.39528 17500 ft 288 kts 282°
2026-04-25 10:40 59.94338 26.35672 17145 ft 285 kts 282°
2026-04-25 10:41 59.94830 26.31895 16817 ft 284 kts 282°
2026-04-25 10:41 59.95326 26.28072 16502 ft 284 kts 282°
2026-04-25 10:41 59.95815 26.24309 16342 ft 276 kts 282°
2026-04-25 10:41 59.96292 26.20622 16068 ft 272 kts 281°
2026-04-25 10:42 59.96760 26.16984 15744 ft 270 kts 281°
2026-04-25 10:42 59.97229 26.13340 15284 ft 275 kts 282°
2026-04-25 10:42 59.97927 26.09752 14946 ft 281 kts 294°
2026-04-25 10:42 59.98947 26.06355 14608 ft 289 kts 297°
2026-04-25 10:43 60.00047 26.02867 14266 ft 301 kts 298°
2026-04-25 10:43 60.01177 25.99301 13895 ft 305 kts 297°
2026-04-25 10:43 60.02305 25.95732 13535 ft 302 kts 297°
2026-04-25 10:43 60.03421 25.92180 13185 ft 300 kts 297°
2026-04-25 10:44 60.04511 25.88691 12802 ft 298 kts 297°
2026-04-25 10:44 60.05603 25.85180 12442 ft 296 kts 297°
2026-04-25 10:44 60.06683 25.81697 12099 ft 293 kts 297°
2026-04-25 10:44 60.07748 25.78253 11769 ft 290 kts 297°
2026-04-25 10:45 60.08804 25.74832 11430 ft 287 kts 297°
2026-04-25 10:45 60.09851 25.71436 11104 ft 285 kts 297°
2026-04-25 10:45 60.10891 25.68059 10823 ft 283 kts 297°
2026-04-25 10:45 60.11908 25.64750 10709 ft 275 kts 297°
2026-04-25 10:46 60.12900 25.61523 10565 ft 268 kts 297°
2026-04-25 10:46 60.13824 25.58318 10291 ft 264 kts 294°
2026-04-25 10:46 60.14651 25.55042 10001 ft 262 kts 293°
2026-04-25 10:46 60.15457 25.51769 9762 ft 261 kts 293°
2026-04-25 10:47 60.16258 25.48515 9509 ft 260 kts 293°
2026-04-25 10:47 60.17061 25.45261 9292 ft 259 kts 294°
2026-04-25 10:47 60.17858 25.42050 9016 ft 256 kts 294°
2026-04-25 10:47 60.18650 25.38867 8737 ft 253 kts 294°
2026-04-25 10:48 60.19433 25.35723 8453 ft 250 kts 294°
2026-04-25 10:48 60.20195 25.32662 8196 ft 247 kts 294°
2026-04-25 10:48 60.20963 25.29569 7913 ft 246 kts 294°
2026-04-25 10:48 60.21724 25.26500 7649 ft 245 kts 294°
2026-04-25 10:49 60.22508 25.23461 7377 ft 246 kts 301°
2026-04-25 10:49 60.23785 25.21141 7107 ft 253 kts 329°
2026-04-25 10:49 60.25473 25.20055 6869 ft 260 kts 347°
2026-04-25 10:49 60.27285 25.19732 6596 ft 261 kts 352°
2026-04-25 10:50 60.29080 25.19527 6447 ft 252 kts 352°
2026-04-25 10:50 60.30777 25.19584 6337 ft 241 kts
2026-04-25 10:50 60.32243 25.21050 6251 ft 232 kts 33°
2026-04-25 10:50 60.33372 25.23261 6144 ft 220 kts 44°
2026-04-25 10:51 60.34346 25.25481 6022 ft 208 kts 45°
2026-04-25 10:51 60.35292 25.27640 5779 ft 204 kts 44°
2026-04-25 10:51 60.36230 25.29760 5499 ft 201 kts 44°
2026-04-25 10:51 60.37158 25.31855 5253 ft 200 kts 44°
2026-04-25 10:52 60.38090 25.33945 4996 ft 200 kts 44°
2026-04-25 10:52 60.39020 25.36031 4747 ft 198 kts 44°
2026-04-25 10:52 60.39936 25.38080 4501 ft 195 kts 44°
2026-04-25 10:52 60.40986 25.39724 4150 ft 189 kts 12°
2026-04-25 10:53 60.42238 25.39602 3768 ft 180 kts 331°
2026-04-25 10:53 60.43197 25.38072 3389 ft 176 kts 303°
2026-04-25 10:53 60.43831 25.35995 3111 ft 171 kts 297°
2026-04-25 10:53 60.44416 25.33895 3033 ft 171 kts 297°
2026-04-25 10:54 60.44993 25.31815 2989 ft 171 kts 297°
2026-04-25 10:54 60.45384 25.30407 2970 ft 169 kts 296°
2026-04-25 10:54 60.45740 25.27439 2966 ft 168 kts 252°
2026-04-25 10:54 60.45145 25.25453 2973 ft 164 kts 237°
2026-04-25 10:55 60.44499 25.23594 2967 ft 160 kts 237°
2026-04-25 10:55 60.43844 25.21813 2969 ft 158 kts 234°
2026-04-25 10:55 60.43131 25.20101 2974 ft 160 kts 232°
2026-04-25 10:55 60.42377 25.18401 2904 ft 164 kts 231°
2026-04-25 10:56 60.41605 25.16687 2713 ft 164 kts 231°
2026-04-25 10:56 60.40853 25.15035 2495 ft 156 kts 230°
2026-04-25 10:56 60.40123 25.13433 2285 ft 154 kts 231°
2026-04-25 10:56 60.39414 25.11890 2065 ft 147 kts 230°
2026-04-25 10:57 60.38709 25.10385 1804 ft 146 kts 232°
2026-04-25 10:57 60.38039 25.08865 1625 ft 144 kts 232°
2026-04-25 10:57 60.37373 25.07365 1472 ft 144 kts 230°
2026-04-25 10:57 60.36686 25.05864 1273 ft 145 kts 229°
2026-04-25 10:58 60.35995 25.04365 1030 ft 145 kts 231°
2026-04-25 10:58 60.35335 25.02860 844 ft 143 kts 228°
2026-04-25 10:58 60.34650 25.01373 676 ft 144 kts 229°
2026-04-25 10:58 60.33970 24.99896 461 ft 145 kts 229°
2026-04-25 10:59 60.33307 24.98436 294 ft 140 kts 230°
2026-04-25 10:59 60.32646 24.96975 206 ft 138 kts 230°
2026-04-25 10:59 60.32061 24.95684 160 ft 102 kts 227°
2026-04-25 10:59 60.31722 24.94933 156 ft 56 kts 229°
2026-04-25 11:00 60.31513 24.94584 152 ft 29 kts 182°
2026-04-25 11:00 60.31467 24.94616 153 ft 0 kts 142°
2026-04-25 11:02 60.31450 24.94647 153 ft 7 kts 134°
2026-04-25 11:02 60.31418 24.94780 154 ft 14 kts 85°
2026-04-25 11:02 60.31441 24.94960 155 ft 13 kts 104°
2026-04-25 11:02 60.31448 24.95132 156 ft 13 kts 55°
2026-04-25 11:03 60.31451 24.95299 157 ft 13 kts 92°
2026-04-25 11:03 60.31444 24.95460 159 ft 10 kts 134°
2026-04-25 11:03 60.31421 24.95503 159 ft 0 kts 138°
2026-04-25 11:03 60.31416 24.95511 159 ft 1 kts 139°
2026-04-25 11:04 60.31416 24.95512 159 ft 0 kts 139°
2026-04-25 11:06 60.31416 24.95511 159 ft 0 kts 139°
2026-04-25 11:06 60.31417 24.95511 159 ft 0 kts 139°